• En España
  • Lista de países
  • Para 7 días
  • Temperatura del agua
  • Mapa Satelital
  • El tiempo en el mapa
  • Informadores
  • user-avatar
    Iniciar sesión

    Tiempo cada hora Traktovaya

    Hoy, 22 Octubre, Lunes

    Tiempo Temperatura Precipitaciones Viento Presión Humedad
    00:00 -1°C° 0 mm 1 mps 753 mmHg 86%
    01:00 -1°C° 0 mm 1 mps 753 mmHg 86%
    02:00 -1°C° 0 mm 1 mps 753 mmHg 86%
    03:00 -1°C° 0 mm 1 mps 753 mmHg 86%
    04:00 -1°C° 0 mm 1 mps 753 mmHg 88%
    05:00 -1°C° 0 mm 1 mps 753 mmHg 89%
    06:00 -1°C° 0 mm 1 mps 753 mmHg 90%
    07:00 0°C° 0 mm 1 mps 753 mmHg 91%
    08:00 -1°C° 0 mm 2 mps 753 mmHg 88%
    09:00 -1°C° 0 mm 2 mps 753 mmHg 86%
    10:00 0°C° 0 mm 3 mps 753 mmHg 83%
    11:00 +1°C° 0 mm 3 mps 752 mmHg 78%
    12:00 +1°C° 0 mm 3 mps 752 mmHg 74%
    13:00 +1°C° 0 mm 4 mps 752 mmHg 70%
    14:00 +1°C° 0 mm 4 mps 751 mmHg 71%
    15:00 0°C° 0 mm 4 mps 751 mmHg 73%
    16:00 0°C° 0 mm 4 mps 750 mmHg 75%
    17:00 0°C° 0 mm 4 mps 749 mmHg 76%
    18:00 -1°C° 0 mm 4 mps 749 mmHg 77%
    19:00 -1°C° 0 mm 5 mps 748 mmHg 78%
    20:00 -1°C° 0 mm 5 mps 748 mmHg 79%
    21:00 -1°C° 0 mm 5 mps 747 mmHg 80%
    22:00 0°C° 0 mm 5 mps 746 mmHg 80%
    23:00 0°C° 0 mm 5 mps 746 mmHg 81%

    Mañana, 23 Octubre, Martes

    Tiempo Temperatura Precipitaciones Viento Presión Humedad
    00:00 -1°C° 0 mm 6 mps 745 mmHg 82%
    01:00 +1°C° 0 mm 6 mps 745 mmHg 83%
    02:00 +1°C° 0 mm 6 mps 744 mmHg 83%
    03:00 +1°C° 0 mm 6 mps 744 mmHg 84%
    04:00 +1°C° 0 mm 5 mps 744 mmHg 84%
    05:00 +1°C° 0 mm 5 mps 743 mmHg 84%
    06:00 0°C° 0 mm 5 mps 743 mmHg 85%
    07:00 0°C° 0 mm 5 mps 743 mmHg 85%
    08:00 +1°C° 0 mm 5 mps 743 mmHg 85%
    09:00 +1°C° 0 mm 5 mps 743 mmHg 84%
    10:00 +1°C° 0 mm 5 mps 743 mmHg 83%
    11:00 +1°C° 0 mm 5 mps 743 mmHg 83%
    12:00 +2°C° 0 mm 5 mps 743 mmHg 82%
    13:00 +2°C° 0 mm 5 mps 743 mmHg 82%
    14:00 +2°C° 0.1 mm 5 mps 742 mmHg 85%
    15:00 +3°C° 0.1 mm 5 mps 742 mmHg 87%
    16:00 +3°C° 0.1 mm 5 mps 742 mmHg 90%
    17:00 +3°C° 0.2 mm 5 mps 741 mmHg 89%
    18:00 +5°C° 0.2 mm 5 mps 741 mmHg 88%
    19:00 +4°C° 0.2 mm 6 mps 740 mmHg 87%
    20:00 +4°C° 0.3 mm 6 mps 740 mmHg 85%
    21:00 +4°C° 0.3 mm 6 mps 740 mmHg 84%
    22:00 +4°C° 0.3 mm 6 mps 740 mmHg 82%
    23:00 +5°C° 0.4 mm 5 mps 739 mmHg 83%

    Pasado mañana, 24 Octubre, Miércoles

    Tiempo Temperatura Precipitaciones Viento Presión Humedad
    00:00 +3°C° 0.4 mm 5 mps 739 mmHg 83%
    01:00 +3°C° 0.4 mm 5 mps 739 mmHg 83%
    02:00 +3°C° 0.4 mm 5 mps 739 mmHg 84%
    03:00 +3°C° 0.4 mm 5 mps 739 mmHg 86%
    04:00 +3°C° 0.4 mm 5 mps 738 mmHg 87%
    05:00 +4°C° 0.1 mm 4 mps 738 mmHg 88%
    06:00 +4°C° 0.1 mm 4 mps 738 mmHg 88%
    07:00 +4°C° 0.1 mm 4 mps 738 mmHg 89%
    08:00 +4°C° 0.2 mm 4 mps 738 mmHg 89%
    09:00 +4°C° 0.2 mm 4 mps 738 mmHg 89%
    10:00 +5°C° 0.2 mm 4 mps 738 mmHg 89%
    11:00 +5°C° 0.1 mm 4 mps 738 mmHg 89%
    12:00 +5°C° 0.1 mm 3 mps 738 mmHg 89%
    13:00 +7°C° 0.1 mm 3 mps 738 mmHg 89%
    14:00 +7°C° 0.1 mm 3 mps 738 mmHg 91%
    15:00 +7°C° 0.1 mm 3 mps 738 mmHg 92%
    16:00 +7°C° 0.1 mm 2 mps 738 mmHg 93%
    17:00 +7°C° 0.2 mm 3 mps 738 mmHg 94%
    18:00 +7°C° 0.2 mm 3 mps 738 mmHg 94%
    19:00 +7°C° 0.2 mm 3 mps 738 mmHg 95%
    20:00 +7°C° 0.3 mm 3 mps 738 mmHg 95%
    21:00 +8°C° 0.3 mm 3 mps 738 mmHg 94%
    22:00 +8°C° 0.3 mm 3 mps 738 mmHg 94%
    23:00 +8°C° 0.2 mm 3 mps 738 mmHg 94%

    25 Octubre, Jueves

    Tiempo Temperatura Precipitaciones Viento Presión Humedad
    00:00 +8°C° 0.2 mm 3 mps 738 mmHg 94%
    01:00 +8°C° 0.2 mm 3 mps 738 mmHg 94%
    02:00 +7°C° 0 mm 3 mps 739 mmHg 95%
    03:00 +5°C° 0 mm 3 mps 739 mmHg 95%
    04:00 +5°C° 0 mm 3 mps 739 mmHg 96%
    05:00 +5°C° 0 mm 3 mps 739 mmHg 96%
    06:00 +5°C° 0 mm 3 mps 739 mmHg 96%
    07:00 +5°C° 0 mm 3 mps 740 mmHg 95%
    08:00 +7°C° 0 mm 3 mps 740 mmHg 92%
    09:00 +7°C° 0 mm 3 mps 740 mmHg 89%
    10:00 +8°C° 0 mm 3 mps 740 mmHg 86%
    11:00 +8°C° 0 mm 4 mps 740 mmHg 83%
    12:00 +10°C° 0 mm 4 mps 740 mmHg 79%
    13:00 +10°C° 0 mm 4 mps 740 mmHg 76%
    14:00 +10°C° 0.3 mm 4 mps 740 mmHg 80%
    15:00 +8°C° 0.3 mm 4 mps 740 mmHg 84%
    16:00 +9°C° 0.3 mm 3 mps 739 mmHg 88%
    17:00 +8°C° 0.1 mm 4 mps 739 mmHg 87%
    18:00 +8°C° 0.1 mm 4 mps 739 mmHg 86%
    19:00 +10°C° 0.1 mm 4 mps 738 mmHg 85%
    20:00 +10°C° 0 mm 4 mps 738 mmHg 83%
    21:00 +10°C° 0 mm 4 mps 738 mmHg 81%
    22:00 +10°C° 0 mm 4 mps 738 mmHg 80%
    23:00 +10°C° 0 mm 4 mps 737 mmHg 78%

    26 Octubre, Viernes

    Tiempo Temperatura Precipitaciones Viento Presión Humedad
    00:00 +8°C° 0 mm 4 mps 737 mmHg 76%
    01:00 +8°C° 0 mm 4 mps 737 mmHg 75%
    02:00 +8°C° 0 mm 4 mps 736 mmHg 72%
    03:00 +10°C° 0 mm 4 mps 736 mmHg 70%
    04:00 +10°C° 0 mm 4 mps 736 mmHg 68%
    05:00 +10°C° 0 mm 4 mps 735 mmHg 68%
    06:00 +10°C° 0 mm 4 mps 735 mmHg 68%
    07:00 +8°C° 0 mm 4 mps 734 mmHg 68%
    08:00 +9°C° 0 mm 5 mps 734 mmHg 65%
    09:00 +10°C° 0 mm 5 mps 733 mmHg 62%
    10:00 +12°C° 0 mm 5 mps 733 mmHg 59%
    11:00 +12°C° 0 mm 5 mps 733 mmHg 58%
    12:00 +13°C° 0 mm 5 mps 732 mmHg 57%
    13:00 +14°C° 0 mm 4 mps 732 mmHg 56%
    14:00 +13°C° 0.1 mm 4 mps 732 mmHg 61%
    15:00 +12°C° 0.1 mm 4 mps 732 mmHg 67%
    16:00 +11°C° 0.1 mm 3 mps 732 mmHg 72%
    17:00 +11°C° 0.8 mm 3 mps 732 mmHg 77%
    18:00 +10°C° 0.8 mm 3 mps 732 mmHg 82%
    19:00 +10°C° 0.8 mm 3 mps 732 mmHg 87%
    20:00 +9°C° 0.2 mm 3 mps 732 mmHg 88%
    21:00 +8°C° 0.2 mm 3 mps 732 mmHg 88%
    22:00 +7°C° 0.2 mm 3 mps 732 mmHg 89%
    23:00 +7°C° 0 mm 3 mps 732 mmHg 89%

    27 Octubre, Sábado

    Tiempo Temperatura Precipitaciones Viento Presión Humedad
    00:00 +5°C° 0 mm 3 mps 733 mmHg 90%
    01:00 +5°C° 0 mm 2 mps 733 mmHg 91%
    02:00 +5°C° 0 mm 2 mps 733 mmHg 91%
    03:00 +4°C° 0 mm 2 mps 733 mmHg 91%
    04:00 +4°C° 0 mm 2 mps 734 mmHg 91%
    05:00 +3°C° 0 mm 3 mps 734 mmHg 90%
    06:00 +3°C° 0 mm 3 mps 734 mmHg 89%
    07:00 +3°C° 0 mm 3 mps 734 mmHg 88%
    08:00 +3°C° 0 mm 3 mps 734 mmHg 86%
    09:00 +3°C° 0 mm 3 mps 734 mmHg 85%
    10:00 +3°C° 0 mm 4 mps 734 mmHg 83%
    11:00 +3°C° 0.1 mm 4 mps 734 mmHg 82%
    12:00 +3°C° 0.1 mm 4 mps 734 mmHg 81%
    13:00 +3°C° 0.1 mm 4 mps 734 mmHg 80%
    14:00 +3°C° 0.1 mm 4 mps 735 mmHg 77%
    15:00 +3°C° 0.1 mm 4 mps 735 mmHg 75%
    16:00 +1°C° 0.1 mm 4 mps 735 mmHg 73%
    17:00 +1°C° 0 mm 4 mps 736 mmHg 75%
    18:00 0°C° 0 mm 4 mps 736 mmHg 77%
    19:00 0°C° 0 mm 4 mps 737 mmHg 79%
    20:00 0°C° 0 mm 4 mps 737 mmHg 78%
    21:00 0°C° 0 mm 4 mps 738 mmHg 77%
    22:00 -1°C° 0 mm 4 mps 738 mmHg 76%
    23:00 -1°C° 0.1 mm 4 mps 739 mmHg 78%

    28 Octubre, Domingo

    Tiempo Temperatura Precipitaciones Viento Presión Humedad
    00:00 -1°C° 0.1 mm 5 mps 739 mmHg 80%
    01:00 -1°C° 0.1 mm 5 mps 740 mmHg 82%
    02:00 -1°C° 0.1 mm 5 mps 740 mmHg 82%
    03:00 -1°C° 0.1 mm 5 mps 741 mmHg 82%
    04:00 -1°C° 0.1 mm 5 mps 741 mmHg 83%
    05:00 -2°C° 0.1 mm 5 mps 742 mmHg 83%
    06:00 -2°C° 0.1 mm 5 mps 742 mmHg 84%
    07:00 -2°C° 0.1 mm 5 mps 742 mmHg 84%
    08:00 -2°C° 0.1 mm 5 mps 743 mmHg 82%
    09:00 -2°C° 0.1 mm 5 mps 743 mmHg 80%
    10:00 -2°C° 0.1 mm 5 mps 743 mmHg 78%
    11:00 -1°C° 0.1 mm 5 mps 743 mmHg 78%
    12:00 -1°C° 0.1 mm 5 mps 743 mmHg 78%
    13:00 0°C° 0.1 mm 5 mps 743 mmHg 78%
    14:00 0°C° 0.3 mm 5 mps 743 mmHg 80%
    15:00 0°C° 0.3 mm 4 mps 743 mmHg 82%
    16:00 0°C° 0.3 mm 4 mps 743 mmHg 85%
    17:00 0°C° 0.3 mm 4 mps 742 mmHg 86%
    18:00 0°C° 0.3 mm 4 mps 742 mmHg 87%
    19:00 0°C° 0.3 mm 4 mps 742 mmHg 89%
    20:00 +2°C° 0.3 mm 3 mps 742 mmHg 90%
    21:00 +2°C° 0.3 mm 3 mps 742 mmHg 91%
    22:00 +2°C° 0.3 mm 3 mps 742 mmHg 92%
    23:00 +2°C° 0.1 mm 3 mps 743 mmHg 92%
    Mostrar más